Location: Delettes
(50.6178°N, 2.2123°E)
Time: 09:54:32
(UTC+00:00)

Lacrosse 5 rocket - Pass Details

Date: 27 February 2020
Orbit: 460 x 636 km, 57.0° (Epoch: 08 April)

Event Time Altitude Azimuth Distance (km) Brightness Sun altitude
Rises 20:17:58 0° 301° (WNW) 2,903 6.3 -27.3°
Reaches altitude 10° 20:20:15 10° 299° (WNW) 2,009 5.1 -27.6°
Enters shadow 20:23:55 51° 269° (W) 800 2.3 -28.1°
